STARLINK-30794, 58218

Orbit data source: Space-Track

STARLINK-30794, 58218 is a payload satellite owned by SpaceX/Seattle (US) in LEO that was launched on Fri, 03 Nov 2023 UTC via an FALCON 9 launch vehicle from the Air Force Eastern Test Range (AFETR). Payload-class satellites include a variety of spacecraft equipped with specific instruments for various scientific and technological missions. These include communications satellites like Starlink; space stations such as the ISS; scientific satellites like the Hubble; Earth observation satellites from companies like Planet Labs, Umbra, and HawkEye 360; GPS; miniature CubeSats for education and research; and military/defense satellites.

Loading next visibility...
Identifier
58218, 2023-170N
Orbit
LEO
Country
Flag of USUS
Related business
Manufacturer
SpaceX/Seattle
Mission
Operational Commercial Communications
Bus & Motor
STARLINK V2M, Unknown motor
Mass
730 kg wet, ~700 kg dry
Launch date (UTC)
2023-11-03 (3 years ago)
Launch vehicle
FALCON 9
Launch site
Air Force Eastern Test Range (AFETR)
Object type
Payload
Rocket body
Debris
Shape & HBR
Box + 2 Pan, 17.7 m
Radar Cross Section
33.884 m², Large (>1 m²)

Expand to show TLE details & history
Last TLE update: 2 days ago

TLE from 2 days ago
0 STARLINK-30794
1 58218U 23170N   26171.15738986  .00002239  00000-0  90852-4 0  9995
2 58218  43.0018 335.2639 0001312 263.0073  97.0629 15.27583551145972
Epoch: 2026-06-20T03:46Z
TLE epoch observation values (Epoch: 2026-06-20T03:46:38.483Z)
Latitude
-0.00007°
Longitude
10.22744°
Altitude
482.925 km
Speed
7.626 km/s
True Right ascension
22h 21m 03s
True Declination
0° 00' 00"
Sunlit
Object was in partial shadow at epoch
Visualization orbit readout
Latitude
Unknown
Longitude
Unknown
Altitude
Unknown
Speed
Unknown
Apparent Right ascension
Unknown
Apparent Declination
Unknown
Sunlit
N/A
Visualization observer readout
Local Sidereal Time
21:42:14
Azimuth
Unknown
Elevation
Unknown
Doppler factor
Unknown
Orbital elements
Apogee altitude
485.884 km
Perigee altitude
484.083 km
Semi-major axis
6,863.12 km
Eccentricity
0.00013
Inclination
43.0018°
RAAN
335.2639°
Arg. of periapsis
263.0073°
True anomaly
97.07782°
Mean anomaly
97.0629°
Eccentric anomaly
97.07036°
Mean motion
3.81734 °/min
Orbital period
94.31 mins
BSTAR
0.000090852
Loading maneuver chart data...
Computing Atmospheric mass density...
Loading historical data...
Loading historical data...
Loading historical data...
Loading historical data...
Loading historical data...
Loading historical data...
Loading historical data...

Documentation

Showing up to 5 results
|